CHOP26 YSNW-YSNW

Flight info

Callsign CHOP26
Flight time 0h 4m
Altitude 3500
Route VFR
Aircraft A139/L-SDFGRY/C

Departure

Time 2026-04-24 03:18
Airport Naval Air Station Nowra - HMAS Albatross (YSNW)

Arrival

Time 2026-04-24 03:22
Airport Naval Air Station Nowra - HMAS Albatross (YSNW)
Time Latitude Longitude Altitude Speed Heading
2026-04-24 02:58 -34.93886 150.55075 379 ft 0 kts 313°
2026-04-24 03:11 -34.93884 150.55074 379 ft 1 kts 315°
2026-04-24 03:12 -34.93866 150.55052 378 ft 3 kts 315°
2026-04-24 03:12 -34.93847 150.55028 377 ft 0 kts 312°
2026-04-24 03:12 -34.93842 150.55022 377 ft 4 kts 314°
2026-04-24 03:12 -34.93815 150.54988 375 ft 5 kts 316°
2026-04-24 03:13 -34.93790 150.54962 374 ft 3 kts 331°
2026-04-24 03:13 -34.93773 150.54965 374 ft 1 kts 40°
2026-04-24 03:13 -34.93772 150.54965 374 ft 0 kts 43°
2026-04-24 03:16 -34.93766 150.54974 378 ft 4 kts 45°
2026-04-24 03:16 -34.93718 150.55032 414 ft 29 kts 42°
2026-04-24 03:17 -34.93417 150.55376 563 ft 79 kts 43°
2026-04-24 03:17 -34.92889 150.55608 835 ft 94 kts 344°
2026-04-24 03:17 -34.92705 150.54864 970 ft 112 kts 238°
2026-04-24 03:17 -34.93306 150.54198 974 ft 121 kts 214°
2026-04-24 03:18 -34.93990 150.53589 1013 ft 122 kts 211°
2026-04-24 03:18 -34.94725 150.53033 1012 ft 127 kts 205°
2026-04-24 03:18 -34.95524 150.52567 995 ft 129 kts 198°
2026-04-24 03:18 -34.96375 150.52251 1017 ft 124 kts 177°
2026-04-24 03:19 -34.96922 150.52844 994 ft 107 kts 82°
2026-04-24 03:19 -34.96474 150.53455 925 ft 98 kts 28°
2026-04-24 03:19 -34.95890 150.53844 868 ft 92 kts 19°
2026-04-24 03:19 -34.95289 150.54099 791 ft 88 kts 12°
2026-04-24 03:20 -34.94751 150.54373 765 ft 81 kts 21°
2026-04-24 03:20 -34.94292 150.54733 739 ft 76 kts 30°
2026-04-24 03:20 -34.93914 150.55170 711 ft 73 kts 40°
2026-04-24 03:20 -34.93626 150.55669 681 ft 71 kts 50°
2026-04-24 03:21 -34.93419 150.56220 668 ft 66 kts 54°
2026-04-24 03:21 -34.93069 150.56488 680 ft 59 kts 18°
2026-04-24 03:21 -34.92697 150.56674 717 ft 57 kts 20°
2026-04-24 03:21 -34.92345 150.56874 749 ft 55 kts 23°
2026-04-24 03:22 -34.92005 150.57089 780 ft 53 kts 26°
2026-04-24 03:22 -34.91688 150.57317 806 ft 52 kts 28°
2026-04-24 03:22 -34.91392 150.57555 823 ft 50 kts 31°
2026-04-24 03:22 -34.91108 150.57808 843 ft 49 kts 34°
2026-04-24 03:23 -34.90846 150.58070 861 ft 48 kts 37°
2026-04-24 03:23 -34.90599 150.58348 873 ft 47 kts 40°
2026-04-24 03:23 -34.90338 150.58588 885 ft 47 kts 34°
2026-04-24 03:23 -34.90243 150.58998 850 ft 59 kts 87°
2026-04-24 03:24 -34.90505 150.59433 845 ft 68 kts 129°
2026-04-24 03:24 -34.90966 150.59650 859 ft 74 kts 163°
2026-04-24 03:24 -34.91461 150.59746 895 ft 72 kts 163°
2026-04-24 03:24 -34.92103 150.59901 597 ft 109 kts 158°
2026-04-24 03:25 -34.92838 150.60080 549 ft 108 kts 162°
2026-04-24 03:25 -34.93553 150.60257 829 ft 116 kts 165°
2026-04-24 03:25 -34.94409 150.60515 945 ft 134 kts 167°
2026-04-24 03:25 -34.95335 150.60812 1220 ft 141 kts 163°
2026-04-24 03:26 -34.96341 150.60875 1400 ft 146 kts 174°
2026-04-24 03:26 -34.97346 150.60860 1691 ft 144 kts 174°
2026-04-24 03:26 -34.98331 150.60899 1733 ft 141 kts 173°
2026-04-24 03:26 -34.99312 150.60988 1887 ft 141 kts 165°
2026-04-24 03:27 -35.00158 150.61548 2143 ft 137 kts 143°
2026-04-24 03:27 -35.00967 150.62164 2375 ft 137 kts 143°
2026-04-24 03:27 -35.01777 150.62781 2533 ft 137 kts 142°
2026-04-24 03:27 -35.02613 150.63371 2539 ft 139 kts 143°
2026-04-24 03:28 -35.03460 150.63957 2529 ft 139 kts 142°
2026-04-24 03:28 -35.04298 150.64535 2510 ft 139 kts 143°
2026-04-24 03:28 -35.05147 150.65123 2491 ft 139 kts 143°
2026-04-24 03:28 -35.05985 150.65695 2483 ft 139 kts 143°
2026-04-24 03:29 -35.06833 150.66277 2486 ft 139 kts 143°
2026-04-24 03:29 -35.07671 150.66853 2482 ft 139 kts 143°
2026-04-24 03:29 -35.08517 150.67433 2479 ft 139 kts 143°
2026-04-24 03:29 -35.09381 150.67967 2457 ft 144 kts 158°
2026-04-24 03:30 -35.10297 150.68159 2508 ft 122 kts 162°
2026-04-24 03:30 -35.11106 150.68286 2433 ft 114 kts 162°
2026-04-24 03:30 -35.11877 150.68425 2425 ft 112 kts 162°
2026-04-24 03:30 -35.12655 150.68588 2448 ft 113 kts 162°
2026-04-24 03:31 -35.13427 150.68755 2477 ft 112 kts 162°
2026-04-24 03:31 -35.14194 150.68918 2489 ft 112 kts 162°
2026-04-24 03:31 -35.14969 150.69083 2495 ft 112 kts 162°
2026-04-24 03:31 -35.15749 150.69247 2488 ft 113 kts 162°
2026-04-24 03:32 -35.16531 150.69408 2499 ft 113 kts 162°
2026-04-24 03:32 -35.17300 150.69565 2501 ft 113 kts 162°
2026-04-24 03:32 -35.18083 150.69719 2492 ft 113 kts 162°
2026-04-24 03:32 -35.18887 150.69672 2456 ft 120 kts 197°
2026-04-24 03:33 -35.19453 150.68985 2499 ft 115 kts 245°
2026-04-24 03:33 -35.19461 150.68069 2531 ft 104 kts 284°
2026-04-24 03:33 -35.19311 150.67195 2503 ft 104 kts 283°
2026-04-24 03:33 -35.19162 150.66324 2412 ft 108 kts 280°
2026-04-24 03:34 -35.18961 150.65413 1927 ft 113 kts 282°
2026-04-24 03:34 -35.18744 150.64516 1522 ft 111 kts 282°
2026-04-24 03:34 -35.18534 150.63632 1387 ft 104 kts 284°
2026-04-24 03:34 -35.18375 150.62767 1412 ft 105 kts 283°
2026-04-24 03:35 -35.18224 150.61887 1449 ft 106 kts 283°
2026-04-24 03:35 -35.18092 150.61012 1478 ft 107 kts 276°
2026-04-24 03:35 -35.18258 150.60095 1477 ft 112 kts 251°
2026-04-24 03:35 -35.18675 150.59290 1475 ft 114 kts 232°
2026-04-24 03:36 -35.19135 150.58498 1479 ft 113 kts 232°
2026-04-24 03:36 -35.19630 150.57660 1331 ft 144 kts 239°
2026-04-24 03:36 -35.20341 150.56641 1432 ft 165 kts 233°
2026-04-24 03:36 -35.21059 150.55504 1447 ft 172 kts 231°
2026-04-24 03:37 -35.22020 150.54607 1510 ft 172 kts 213°
2026-04-24 03:37 -35.22971 150.53777 1562 ft 163 kts 213°
2026-04-24 03:37 -35.23885 150.52963 1494 ft 163 kts 213°
2026-04-24 03:37 -35.24805 150.52150 1461 ft 163 kts 213°
2026-04-24 03:38 -35.25726 150.51340 1456 ft 163 kts 213°
2026-04-24 03:38 -35.26651 150.50526 1462 ft 163 kts 212°
2026-04-24 03:38 -35.27716 150.50037 1472 ft 163 kts 193°
2026-04-24 03:38 -35.28794 150.49625 1470 ft 163 kts 193°
2026-04-24 03:39 -35.29888 150.49210 1482 ft 163 kts 193°
2026-04-24 03:39 -35.30972 150.48796 1476 ft 164 kts 193°
2026-04-24 03:39 -35.32056 150.48387 1480 ft 164 kts 193°
2026-04-24 03:39 -35.33147 150.47977 1492 ft 163 kts 194°
2026-04-24 03:40 -35.34240 150.47566 1497 ft 163 kts 193°
2026-04-24 03:40 -35.35335 150.47156 1493 ft 162 kts 193°
2026-04-24 03:40 -35.36401 150.46758 1489 ft 161 kts 193°
2026-04-24 03:40 -35.37485 150.46355 1475 ft 162 kts 193°
2026-04-24 03:41 -35.38568 150.45949 1466 ft 162 kts 193°
2026-04-24 03:41 -35.39659 150.45535 1463 ft 163 kts 193°
2026-04-24 03:41 -35.40742 150.45122 1475 ft 163 kts 193°
2026-04-24 03:41 -35.41822 150.44710 1480 ft 163 kts 193°
2026-04-24 03:42 -35.42904 150.44296 1474 ft 163 kts 193°
2026-04-24 03:42 -35.44000 150.43877 1470 ft 164 kts 193°
2026-04-24 03:42 -35.45089 150.43462 1472 ft 164 kts 193°
2026-04-24 03:42 -35.46189 150.43045 1493 ft 163 kts 193°
2026-04-24 03:43 -35.47269 150.42631 1491 ft 163 kts 193°
2026-04-24 03:43 -35.48362 150.42217 1480 ft 164 kts 193°
2026-04-24 03:43 -35.49443 150.41806 1492 ft 163 kts 193°
2026-04-24 03:43 -35.50539 150.41388 1482 ft 163 kts 193°
2026-04-24 03:44 -35.51622 150.40977 1484 ft 163 kts 193°
2026-04-24 03:44 -35.52711 150.40562 1481 ft 163 kts 194°
2026-04-24 03:44 -35.53786 150.40157 1476 ft 163 kts 193°
2026-04-24 03:44 -35.54875 150.39746 1477 ft 162 kts 193°
2026-04-24 03:45 -35.55957 150.39333 1474 ft 163 kts 193°
2026-04-24 03:45 -35.56958 150.38652 1477 ft 163 kts 213°
2026-04-24 03:45 -35.57864 150.37845 1481 ft 163 kts 213°
2026-04-24 03:45 -35.58796 150.37016 1473 ft 164 kts 213°
2026-04-24 03:46 -35.59718 150.36204 1470 ft 165 kts 213°
2026-04-24 03:46 -35.60658 150.35376 1483 ft 164 kts 213°
2026-04-24 03:46 -35.61581 150.34567 1470 ft 165 kts 213°
2026-04-24 03:46 -35.62522 150.33746 1482 ft 164 kts 213°
2026-04-24 03:47 -35.63454 150.32932 1476 ft 164 kts 213°
2026-04-24 03:47 -35.64384 150.32117 1475 ft 163 kts 213°
2026-04-24 03:47 -35.65308 150.31310 1475 ft 162 kts 213°
2026-04-24 03:47 -35.66216 150.30512 1468 ft 162 kts 213°
2026-04-24 03:48 -35.67144 150.29697 1459 ft 163 kts 213°
2026-04-24 03:48 -35.68064 150.28888 1459 ft 163 kts 213°
2026-04-24 03:48 -35.68995 150.28070 1466 ft 163 kts 213°
2026-04-24 03:48 -35.69917 150.27260 1467 ft 164 kts 213°
2026-04-24 03:49 -35.70847 150.26445 1470 ft 163 kts 213°
2026-04-24 03:49 -35.71775 150.25633 1469 ft 163 kts 213°
2026-04-24 03:49 -35.72711 150.24812 1464 ft 164 kts 214°
2026-04-24 03:49 -35.73636 150.24004 1478 ft 163 kts 213°
2026-04-24 03:50 -35.74646 150.23402 1478 ft 162 kts 193°
2026-04-24 03:50 -35.75738 150.22981 1475 ft 163 kts 194°
2026-04-24 03:50 -35.76807 150.22569 1484 ft 162 kts 194°
2026-04-24 03:50 -35.77887 150.22150 1484 ft 162 kts 194°
2026-04-24 03:51 -35.78975 150.21727 1475 ft 162 kts 194°
2026-04-24 03:51 -35.80050 150.21309 1461 ft 163 kts 194°
2026-04-24 03:51 -35.81148 150.20886 1472 ft 163 kts 194°
2026-04-24 03:51 -35.82221 150.20473 1464 ft 163 kts 194°
2026-04-24 03:52 -35.83305 150.20058 1474 ft 162 kts 194°
2026-04-24 03:52 -35.84404 150.19634 1465 ft 163 kts 194°
2026-04-24 03:52 -35.85483 150.19217 1472 ft 163 kts 194°
2026-04-24 03:52 -35.86561 150.18800 1471 ft 163 kts 194°
2026-04-24 03:53 -35.87650 150.18379 1484 ft 162 kts 194°
2026-04-24 03:53 -35.88736 150.17955 1468 ft 163 kts 194°
2026-04-24 03:53 -35.89821 150.17520 1470 ft 163 kts 198°
2026-04-24 03:53 -35.90609 150.16550 1470 ft 163 kts 245°
2026-04-24 03:54 -35.90619 150.15208 1481 ft 157 kts 293°
2026-04-24 03:54 -35.89858 150.14366 1488 ft 148 kts 343°
2026-04-24 03:54 -35.88867 150.14500 1527 ft 141 kts 14°
2026-04-24 03:54 -35.87928 150.14833 1469 ft 142 kts 15°
2026-04-24 03:55 -35.86964 150.15161 1445 ft 143 kts 14°
2026-04-24 03:55 -35.86007 150.15479 1441 ft 144 kts 14°
2026-04-24 03:55 -35.85025 150.15799 1444 ft 145 kts 14°
2026-04-24 03:55 -35.84052 150.16113 1456 ft 145 kts 14°
2026-04-24 03:56 -35.83083 150.16425 1471 ft 144 kts 14°
2026-04-24 03:56 -35.82108 150.16736 1477 ft 143 kts 13°
2026-04-24 03:56 -35.81144 150.17044 1467 ft 144 kts 14°
2026-04-24 03:56 -35.80170 150.17360 1470 ft 143 kts 16°
2026-04-24 03:57 -35.79269 150.17854 1477 ft 142 kts 23°
2026-04-24 03:57 -35.78363 150.18372 1476 ft 142 kts 23°
2026-04-24 03:57 -35.77462 150.18884 1472 ft 142 kts 23°
2026-04-24 03:57 -35.76552 150.19402 1469 ft 142 kts 23°
2026-04-24 03:58 -35.75657 150.19908 1469 ft 143 kts 23°
2026-04-24 03:58 -35.74751 150.20421 1476 ft 142 kts 23°
2026-04-24 03:58 -35.73842 150.20934 1470 ft 143 kts 23°
2026-04-24 03:58 -35.72932 150.21449 1458 ft 144 kts 23°
2026-04-24 03:59 -35.72025 150.21960 1471 ft 143 kts 23°
2026-04-24 03:59 -35.71128 150.22467 1470 ft 143 kts 23°
2026-04-24 03:59 -35.70216 150.22986 1467 ft 143 kts 23°
2026-04-24 03:59 -35.69306 150.23502 1474 ft 142 kts 23°
2026-04-24 04:00 -35.68399 150.24013 1465 ft 143 kts 23°
2026-04-24 04:00 -35.67495 150.24522 1459 ft 144 kts 23°
2026-04-24 04:00 -35.66579 150.25037 1478 ft 144 kts 23°
2026-04-24 04:00 -35.65666 150.25552 1481 ft 143 kts 23°
2026-04-24 04:01 -35.64763 150.26062 1476 ft 144 kts 23°
2026-04-24 04:01 -35.63849 150.26578 1476 ft 144 kts 23°
2026-04-24 04:01 -35.62938 150.27092 1480 ft 144 kts 23°
2026-04-24 04:01 -35.62028 150.27605 1477 ft 143 kts 23°
2026-04-24 04:02 -35.61113 150.28124 1470 ft 143 kts 23°
2026-04-24 04:02 -35.60214 150.28632 1475 ft 143 kts 23°
2026-04-24 04:02 -35.59304 150.29143 1463 ft 144 kts 23°
2026-04-24 04:02 -35.58399 150.29651 1472 ft 143 kts 23°
2026-04-24 04:03 -35.57488 150.30164 1475 ft 144 kts 23°
2026-04-24 04:03 -35.56575 150.30678 1479 ft 144 kts 23°
2026-04-24 04:03 -35.55651 150.31198 1483 ft 144 kts 23°
2026-04-24 04:03 -35.54750 150.31705 1485 ft 144 kts 23°
2026-04-24 04:04 -35.53832 150.32219 1489 ft 143 kts 23°
2026-04-24 04:04 -35.52933 150.32724 1489 ft 143 kts 23°
2026-04-24 04:04 -35.52020 150.33234 1482 ft 143 kts 23°
2026-04-24 04:04 -35.51116 150.33737 1474 ft 143 kts 23°
2026-04-24 04:05 -35.50207 150.34244 1475 ft 143 kts 23°
2026-04-24 04:05 -35.49298 150.34753 1488 ft 142 kts 23°
2026-04-24 04:05 -35.48392 150.35265 1465 ft 143 kts 23°
2026-04-24 04:05 -35.47487 150.35773 1473 ft 143 kts 23°
2026-04-24 04:06 -35.46594 150.36273 1478 ft 142 kts 23°
2026-04-24 04:06 -35.45687 150.36784 1467 ft 143 kts 23°
2026-04-24 04:06 -35.44772 150.37299 1471 ft 143 kts 23°
2026-04-24 04:06 -35.43871 150.37807 1470 ft 142 kts 23°
2026-04-24 04:07 -35.42970 150.38316 1471 ft 143 kts 23°
2026-04-24 04:07 -35.42065 150.38832 1473 ft 142 kts 23°
2026-04-24 04:07 -35.41166 150.39343 1462 ft 143 kts 23°
2026-04-24 04:07 -35.40265 150.39853 1456 ft 143 kts 23°
2026-04-24 04:08 -35.39360 150.40364 1468 ft 143 kts 23°
2026-04-24 04:08 -35.38465 150.40868 1486 ft 141 kts 23°
2026-04-24 04:08 -35.37554 150.41379 1469 ft 142 kts 23°
2026-04-24 04:08 -35.36654 150.41879 1459 ft 143 kts 23°
2026-04-24 04:09 -35.35744 150.42386 1468 ft 144 kts 23°
2026-04-24 04:09 -35.34826 150.42900 1475 ft 143 kts 23°
2026-04-24 04:09 -35.33919 150.43408 1477 ft 143 kts 23°
2026-04-24 04:09 -35.33011 150.43916 1480 ft 142 kts 23°
2026-04-24 04:10 -35.32115 150.44414 1472 ft 142 kts 23°
2026-04-24 04:10 -35.31206 150.44916 1468 ft 143 kts 23°
2026-04-24 04:10 -35.30296 150.45424 1475 ft 142 kts 23°
2026-04-24 04:11 -35.28495 150.46425 1469 ft 142 kts 23°
2026-04-24 04:11 -35.27586 150.46925 1480 ft 142 kts 23°
2026-04-24 04:11 -35.26678 150.47426 1481 ft 142 kts 23°
2026-04-24 04:11 -35.25776 150.47926 1475 ft 142 kts 23°
2026-04-24 04:12 -35.24866 150.48433 1480 ft 143 kts 23°
2026-04-24 04:12 -35.23961 150.48936 1487 ft 142 kts 23°
2026-04-24 04:12 -35.23053 150.49445 1484 ft 142 kts 23°
2026-04-24 04:12 -35.22149 150.49953 1488 ft 142 kts 23°
2026-04-24 04:13 -35.21246 150.50459 1478 ft 142 kts 23°
2026-04-24 04:13 -35.20347 150.50966 1495 ft 141 kts 23°
2026-04-24 04:13 -35.19442 150.51477 1485 ft 142 kts 23°
2026-04-24 04:13 -35.18544 150.51982 1483 ft 143 kts 23°
2026-04-24 04:14 -35.17633 150.52492 1483 ft 143 kts 23°
2026-04-24 04:14 -35.16729 150.52995 1481 ft 143 kts 23°
2026-04-24 04:14 -35.15822 150.53496 1494 ft 142 kts 23°
2026-04-24 04:14 -35.14912 150.53984 1485 ft 143 kts 19°
2026-04-24 04:15 -35.13922 150.54112 1482 ft 144 kts
2026-04-24 04:15 -35.12922 150.54196 1477 ft 145 kts
2026-04-24 04:15 -35.11912 150.54280 1479 ft 145 kts
2026-04-24 04:15 -35.10910 150.54362 1492 ft 144 kts
2026-04-24 04:16 -35.09897 150.54452 1486 ft 144 kts
2026-04-24 04:16 -35.08896 150.54541 1486 ft 144 kts
2026-04-24 04:16 -35.07908 150.54631 1483 ft 144 kts
2026-04-24 04:16 -35.06905 150.54723 1492 ft 143 kts
2026-04-24 04:17 -35.05907 150.54810 1473 ft 144 kts
2026-04-24 04:17 -35.04900 150.54889 1491 ft 143 kts
2026-04-24 04:17 -35.03893 150.54967 1474 ft 145 kts
2026-04-24 04:17 -35.02889 150.55043 1480 ft 144 kts
2026-04-24 04:18 -35.01875 150.55122 1482 ft 144 kts
2026-04-24 04:18 -35.00880 150.55200 1479 ft 144 kts
2026-04-24 04:18 -34.99874 150.55280 1467 ft 144 kts
2026-04-24 04:18 -34.98859 150.55360 1467 ft 145 kts
2026-04-24 04:19 -34.97868 150.55385 1559 ft 136 kts 352°
2026-04-24 04:19 -34.96980 150.55092 1493 ft 125 kts 340°
2026-04-24 04:19 -34.96162 150.54984 1384 ft 122 kts 18°
2026-04-24 04:19 -34.95473 150.55633 1388 ft 128 kts 40°
2026-04-24 04:20 -34.94791 150.56387 1356 ft 139 kts 43°
2026-04-24 04:20 -34.94079 150.57269 1318 ft 154 kts 48°
2026-04-24 04:20 -34.93477 150.58177 1394 ft 123 kts 37°
2026-04-24 04:20 -34.92851 150.58395 1456 ft 91 kts 350°
2026-04-24 04:21 -34.92420 150.57983 1499 ft 79 kts 295°
2026-04-24 04:21 -34.92326 150.57361 1480 ft 67 kts 274°
2026-04-24 04:21 -34.92329 150.56799 1488 ft 69 kts 278°
2026-04-24 04:21 -34.92551 150.56201 1357 ft 88 kts 223°
2026-04-24 04:22 -34.93042 150.55667 1142 ft 100 kts 216°
2026-04-24 04:22 -34.93565 150.55072 944 ft 105 kts 219°
2026-04-24 04:22 -34.94088 150.54462 826 ft 102 kts 217°
2026-04-24 04:22 -34.94577 150.53862 741 ft 97 kts 230°
2026-04-24 04:23 -34.94522 150.53191 720 ft 75 kts 325°
2026-04-24 04:23 -34.94100 150.53307 721 ft 64 kts 44°
2026-04-24 04:23 -34.93807 150.53708 736 ft 61 kts 48°
2026-04-24 04:23 -34.93542 150.54074 766 ft 53 kts 47°
2026-04-24 04:24 -34.93296 150.54440 782 ft 58 kts 47°
2026-04-24 04:24 -34.93100 150.54884 763 ft 69 kts 91°
2026-04-24 04:24 -34.93450 150.55196 662 ft 63 kts 202°
2026-04-24 04:24 -34.93789 150.54953 466 ft 50 kts 220°
2026-04-24 04:25 -34.93973 150.54739 383 ft 26 kts 233°
2026-04-24 04:25 -34.94071 150.54616 376 ft 16 kts 225°
2026-04-24 04:25 -34.94150 150.54518 373 ft 16 kts 223°
2026-04-24 04:25 -34.94246 150.54486 368 ft 14 kts 136°
2026-04-24 04:26 -34.94258 150.54576 378 ft 13 kts 53°
2026-04-24 04:26 -34.94176 150.54672 367 ft 16 kts 45°
2026-04-24 04:26 -34.94096 150.54765 368 ft 13 kts 44°
2026-04-24 04:26 -34.94049 150.54822 370 ft 4 kts 46°
2026-04-24 04:27 -34.94033 150.54842 371 ft 3 kts 45°
2026-04-24 04:27 -34.94009 150.54871 372 ft 5 kts 44°
2026-04-24 04:27 -34.93979 150.54906 373 ft 6 kts 44°
2026-04-24 04:27 -34.93951 150.54939 374 ft 5 kts 43°
2026-04-24 04:28 -34.93928 150.54967 376 ft 4 kts 60°
2026-04-24 04:28 -34.93935 150.55003 377 ft 3 kts 90°
2026-04-24 04:28 -34.93931 150.55025 378 ft 3 kts 57°
2026-04-24 04:28 -34.93910 150.55051 379 ft 1 kts 44°